Regional Weather Roundup
Issued by NWS

Home | Current Version | Previous Version | Graphics & Text | Print | Product List | Glossary On
Versions: 1 2 3 4 5 6 7 8 9 10 11 12 13 14 15 16 17 18 19 20 21 22 23 24 25 26 27 28 29 30 31 32 33 34 35 36 37 38 39 40 41 42 43 44 45 46 47 48 49 50
000
ASUS45 KABQ 302001
RWRNM
WEATHER ROUNDUP FOR NEW MEXICO
NATIONAL WEATHER SERVICE ALBUQUERQUE NM
200 PM MDT THU OCT 30 2014

NOTE: "FAIR" MEANS FEW OR NO CLOUDS BELOW 12,000 FEET AGL WITH NO
       SIGNIFICANT WEATHER OR OBSTRUCTIONS TO VISION.

      THIS PRODUCT IS RELEASED AS TWO VERSIONS.  ONE VERSION NEAR
      THE TOP OF THE HOUR CONTAINING PRELIMINARY DATA FROM ALBUQUERQUE
      AND OTHER STATIONS.  A FINAL VERSION WITH ADDITIONAL DATA IS
      ISSUED ABOUT 10 MINUTES AFTER THE HOUR.

NMZ501-503-504-510>518-302100-
NORTHWEST PLATEAU/NORTHCENTRAL MOUNTAINS

CITY           SKY/WX    TMP DP  RH WIND       PRES   REMARKS
FARMINGTON     SUNNY     65  17  15 CALM      30.29F
LOS ALAMOS     SUNNY     63  12  13 S9        30.38F
SANTA FE       SUNNY     69  12  11 S13       30.33F
TAOS           SUNNY     66  18  15 CALM      30.35F
ANGEL FIRE     FAIR      65  12  12 S14G21    30.39F

$$
NMZ402-403-502-505>509-302100-
WESTCENTRAL MOUNTAINS/SOUTHWEST MOUNTAINS

CITY           SKY/WX    TMP DP  RH WIND       PRES   REMARKS
GALLUP         SUNNY     71   8   8 NE7       30.31F
SILVER CITY    SUNNY     73  32  21 S9        30.28F

$$
NMZ407-409-411-412-302100-
SOUTHERN DESERTS

CITY           SKY/WX    TMP DP  RH WIND       PRES   REMARKS
LORDSBURG      FAIR      79  36  21 SE10      30.19F
DEMING         SUNNY     78  33  19 E8        30.20F
LAS CRUCES     SUNNY     77  34  20 CALM      30.23F
T OR C         SUNNY     75  23  14 NE7G18    30.24F

$$
NMZ519>523-302100-
CENTRAL VALLEYS/CENTRAL HIGHLANDS

CITY           SKY/WX    TMP DP  RH WIND       PRES   REMARKS
ALBUQUERQUE    SUNNY     71  16  12 VRB3      30.30F
DOUBLE EAGLE   SUNNY     70  18  13 SE10      30.33F
MORIARTY ARPT  FAIR      69  18  14 E7        30.35F
CLINES CORNERS SUNNY     63  19  18 VRB7G17   30.37F
BELEN          FAIR      71  19  14 SW6       30.29F
SOCORRO        FAIR      74  20  13 NW8       30.27F

$$
NMZ524>526-539-540-302100-
SOUTHCENTRAL MOUNTAINS

CITY           SKY/WX    TMP DP  RH WIND       PRES   REMARKS
RUIDOSO        SUNNY     64  27  24 SE8       30.38F

$$
NMZ527>531-302100-
NORTHEAST HIGHLANDS/NORTHEAST PLAINS

CITY           SKY/WX    TMP DP  RH WIND       PRES   REMARKS
LAS VEGAS      SUNNY     62  20  19 VRB3      30.38F
RATON          SUNNY     64  22  20 S7        30.34F
CLAYTON        SUNNY     66  23  19 N14       30.32F

$$
NMZ532>537-302100-
EASTCENTRAL PLAINS

CITY           SKY/WX    TMP DP  RH WIND       PRES   REMARKS
TUCUMCARI      SUNNY     72  22  15 E16G26    30.27F
CANNON AFB     NOT AVBL
CLOVIS AIRPORT SUNNY     73  27  17 NE23      30.28F

$$
NMZ028-029-538-302100-
SOUTHEAST PLAINS

CITY           SKY/WX    TMP DP  RH WIND       PRES   REMARKS
ROSWELL        SUNNY     78  34  20 N13       30.21F
CARLSBAD       SUNNY     76  39  26 N14       30.18F
HOBBS          SUNNY     75  43  31 N15G22    30.18F


$$



USA.gov is the U.S. government's official web portal to all federal, state and local government web resources and services.